Location: Blienschwiller
(48.3416°N, 7.4182°E)
Time: 17:52:52
(UTC+00:00)

Cosmos 1633 Rocket - Pass Details

Date: 18 February 2020
Orbit: 608 x 622 km, 82.5° (Epoch: 28 March)

Event Time Altitude Azimuth Distance (km) Brightness Sun altitude
Rises 05:59:24 0° 346° (NNW) 2,888 6.2 -6.3°
Reaches altitude 10° 06:01:40 10° 341° (NNW) 1,980 5.4 -5.9°
Maximum altitude 06:05:55 52° 266° (W) 764 3.2 -5.3°
Drops below altitude 10° 06:10:10 10° 190° (S) 1,972 5.7 -4.6°
Sets 06:12:25 0° 185° (S) 2,875 6.6 -4.2°
